User: anonymous   Login
Location: Unspecified
(0.0000°N, 0.0000°E)
Time: 20:45:47
(UTC+00:00)
Language:

STARLINK-1094 - Orbit

View from above orbital plane
View from above orbital plane
View from above satellite
View from above satellite

Ground track
Ground track

The orbit is defined by the following mean orbital elements,

1 44941U          26145.60999878 +.00000000 +00000-0 +10191-2 0 00003
2 44941  53.1543 317.1097 0002851 280.8362  79.2327 15.52375919    05
Epoch (UTC): 25 May 2026 14:38:23
Eccentricity: 0.0002851
inclination: 53.1543°
perigee height: 408 km
apogee height: 412 km
right ascension of ascending node: 317.1097°
argument of perigee: 280.8362°
revolutions per day: 15.52375919
mean anomaly at epoch: 79.2327°

The dashed part of the orbit path shows where the satellite is in the earth's shadow,  

DLR